Location: Grantsboro
(35.1404°N, 76.8424°W)
Time: 22:11:00
(UTC+00:00)

STARLINK-68 - Pass Details

Date: 18 January 2020
Orbit: 528 x 531 km, 53.0° (Epoch: 23 February)

Event Time Altitude Azimuth Distance (km) Brightness Sun altitude
Exits shadow 11:32:08 - 243° (WSW) 2,417 6.5 -8.9°
Reaches altitude 10° 11:33:49 10° 249° (WSW) 1,769 5.8 -8.5°
Maximum altitude 11:37:37 41° 321° (NW) 770 4.0 -7.8°
Drops below altitude 10° 11:41:28 10° 33° (NNE) 1,779 6.4 -7.1°
Sets 11:43:47 0° 40° (NE) 2,673 7.4 -6.6°
